Location: Cantarrana
(10.3575°N, 66.9340°W)
Time: 14:59:06
(UTC+00:00)

COSMOS 2487 - Pass Details

Date: 08 December 2021
Orbit: 416 x 421 km, 74.7° (Epoch: 20 January)

Event Time Altitude Azimuth Distance (km) Brightness Sun altitude
Rises 23:27:47 0° 197° (SSW) 2,356 6.6 -19.5°
Reaches altitude 10° 23:29:50 10° 201° (SSW) 1,495 5.6 -20.0°
Maximum altitude 23:33:04 62° 282° (WNW) 475 2.6 -20.7°
Enters shadow 23:33:35 52° 329° (NNW) 525 2.7 -20.9°
